Location: Newark
(43.6583°N, 1.6617°E)
Time: 03:55:46
(UTC+00:00)

Courier 1B - Pass Details

Date: 31 August 2019
Orbit: 962 x 1209 km, 28.3° (Epoch: 21 September)

Event Time Altitude Azimuth Distance (km) Brightness Sun altitude
Rises 16:46:33 0° 250° (WSW) 3,953 12.2 18.0°
Reaches altitude 10° 16:50:08 10° 235° (SW) 2,947 11.2 17.4°
Maximum altitude 16:55:14 21° 189° (S) 2,183 9.6 16.5°
Drops below altitude 10° 17:00:07 10° 144° (SE) 2,814 9.6 15.6°
Sets 17:03:26 0° 128° (SE) 3,724 10.1 15.0°
